Regional Weather Roundup
Issued by NWS

Home | Current Version | Previous Version | Text Only | Print | Product List | Glossary On
Versions: 1 2 3 4 5 6 7 8 9 10 11 12 13 14 15 16 17 18 19 20 21 22 23 24 25 26 27 28 29 30 31 32 33 34 35 36 37 38 39 40 41 42 43 44 45 46 47 48 49 50
000
ASUS42 KFFC 251303
RWRGA
WEATHER ROUNDUP FOR GEORGIA
NATIONAL WEATHER SERVICE PEACHTREE CITY GA
800 AM EST SUN JAN 25 2015

NOTE: "FAIR" INDICATES FEW OR NO CLOUDS BELOW 12,000 FEET WITH NO
SIGNIFICANT WEATHER AND/OR OBSTRUCTIONS TO VISIBILITY.

* = USE WITH CAUTION. THE STATIONS MARKED WITH AN ASTERISK MAY NOT
REPORT WEATHER SUCH AS PRECIPITATION, FOG, OR THUNDER AND ARE NOT
QUALITY CONTROLLED BY NWS.

THE REMARK "TC" DENOTES TEMPERATURE READING IN DEGREES CELSIUS.

GAZ001>058-251400-
NORTH GEORGIA

CITY           SKY/WX    TMP DP  RH WIND       PRES   REMARKS
ATLANTA        PTCLDY    32  27  81 SW5       29.96S WCI  27
ATHENS         CLEAR     31  27  85 CALM      29.96S
CHAMBLEE       CLEAR     28  25  88 CALM      29.95F
PEACHTREE CITY CLEAR     27  24  89 CALM      29.98S
ROME           CLEAR     26  24  92 CALM      29.93F
WEST ATLANTA   CLEAR     29  25  85 SW3       29.97S
GAINESVILLE    CLEAR     33  29  85 W7        29.94S WCI  27
CARTERSVILLE   CLEAR     25  22  88 CALM      29.95F


CITY           SKY/WX    TMP DP  RH WIND       PRES   REMARKS
DALTON*        CLEAR     30  30 100 S3        29.94F
LAWRENCEVILLE* CLEAR     30  21  69 CALM      29.94
MARIETTA       PTCLDY    28  28  99 CALM      29.95S
KENNESAW*      PTCLDY   N/A N/A N/A CALM      29.96S
$$

GAZ059>098-102>109-251400-
CENTRAL GEORGIA

CITY           SKY/WX    TMP DP  RH WIND       PRES   REMARKS
AUGUSTA-BUSH   MOCLDY    33  29  85 S3        30.01R
AUGUSTA-DANIEL MOCLDY    39  30  70 CALM      30.00R
COLUMBUS       CLEAR     30  28  92 CALM      30.02R
MACON          PTCLDY    34  29  82 CALM      30.02F
ROBINS AFB     PTCLDY    35  30  83 S2        30.02F


CITY           SKY/WX    TMP DP  RH WIND       PRES   REMARKS
LAGRANGE*      CLEAR     29  27  93 CALM      29.99S
SYLVANIA*      CLEAR     37  32  84 CALM      30.03F
MILLEDGEVILLE* PTCLDY    32  32 100 CALM      30.01F
$$

GAZ099>101-110>166-251400-
SOUTH GEORGIA

CITY           SKY/WX    TMP DP  RH WIND       PRES   REMARKS
SAVANNAH       PTCLDY    36  30  79 W3        30.04S
VALDOSTA       PTCLDY    34  33  96 CALM      30.06F
ALMA           CLEAR     35  33  92 CALM      30.05S
ST SIMONS      CLEAR     40  33  76 W5        30.05S
FT STEWART     CLEAR     37  33  86 CALM      30.02F
ALBANY         CLEAR     31  28  89 CALM      30.06F
HUNTER AFB     CLEAR     36  32  85 W2        30.02F
MOODY AFB      PTCLDY    37  32  83 SW1       30.05S
BRUNSWICK      CLEAR     37  34  87 CALM      30.06F


CITY           SKY/WX    TMP DP  RH WIND       PRES   REMARKS
BAINBRIDGE*    CLEAR     34  34 100 CALM      30.05F
MOULTRIE*      CLEAR     34  34 100 CALM      30.06F
VIDALIA*       CLEAR     36  32  87 CALM      30.02F
WAYCROSS*      CLEAR     38  37  92 CALM      30.06F
DOUGLAS*       CLEAR     36  34  93 CALM      30.06F
$$


USA.gov is the U.S. government's official web portal to all federal, state and local government web resources and services.